| time (UTC) | temp F | wind direction | speed MPH | gust MPH | rain 1hr in | rain 24hr in | rain mn in | humidity % | barometer mb |
| 20260506061634 | 61 | 192 | 0.0 | 0.0 | 0.00 | 0.00 | 0.00 | 83 | 1013.8 |
| 20260506060623 | 61 | 192 | 0.0 | 0.0 | 0.00 | 0.00 | 0.00 | 81 | 1013.7 |
| 20260506050451 | 64 | 192 | 0.0 | 0.0 | 0.00 | 0.00 | 0.00 | 78 | 1014.3 |
| 20260506043334 | 65 | 178 | 0.0 | 3.0 | 0.00 | 0.00 | 0.00 | 76 | 1014.3 |
| 20260506042339 | 65 | 178 | 0.0 | 3.0 | 0.00 | 0.00 | 0.00 | 75 | 1014.5 |
| 20260506041354 | 66 | 201 | 0.0 | 5.0 | 0.00 | 0.00 | 0.00 | 75 | 1014.6 |
| 20260506040320 | 66 | 167 | 0.0 | 0.0 | 0.00 | 0.00 | 0.00 | 74 | 1014.4 |
| 20260506035249 | 66 | 189 | 0.0 | 2.0 | 0.00 | 0.00 | 0.00 | 74 | 1014.3 |
| 20260506034304 | 67 | 195 | 0.0 | 6.0 | 0.00 | 0.00 | 0.00 | 73 | 1014.5 |
| 20260506033304 | 67 | 172 | 1.0 | 9.0 | 0.00 | 0.00 | 0.00 | 74 | 1014.4 |
| 20260506032316 | 67 | 167 | 0.0 | 9.0 | 0.00 | 0.00 | 0.00 | 73 | 1014.3 |
| 20260506031325 | 67 | 167 | 0.0 | 7.0 | 0.00 | 0.00 | 0.00 | 73 | 1014.2 |
| 20260506025135 | 68 | 180 | 0.0 | 6.0 | 0.00 | 0.00 | 0.00 | 73 | 1014.2 |
| 20260506023045 | 68 | 142 | 0.0 | 7.0 | 0.00 | 0.00 | 0.00 | 72 | 1013.9 |
| 20260506022019 | 68 | 178 | 0.0 | 7.0 | 0.00 | 0.00 | 0.00 | 72 | 1013.8 |
| 20260506015831 | 68 | 184 | 0.0 | 4.0 | 0.00 | 0.00 | 0.00 | 68 | 1013.8 |
| 20260506014828 | 68 | 184 | 0.0 | 0.0 | 0.00 | 0.00 | 0.00 | 67 | 1013.8 |
| 20260506013845 | 68 | 186 | 0.0 | 2.0 | 0.00 | 0.00 | 0.00 | 64 | 1013.7 |
| 20260506012857 | 69 | 185 | 0.0 | 0.0 | 0.00 | 0.00 | 0.00 | 63 | 1013.6 |
| 20260506011848 | 69 | 185 | 0.0 | 0.0 | 0.00 | 0.00 | 0.00 | 64 | 1013.4 |
| 20260506010827 | 69 | 186 | 0.0 | 0.0 | 0.00 | 0.00 | 0.00 | 60 | 1013.2 |
| 20260506005836 | 70 | 186 | 0.0 | 0.0 | 0.00 | 0.00 | 0.00 | 59 | 1013.0 |
| 20260506004846 | 71 | 186 | 0.0 | 0.0 | 0.00 | 0.00 | 0.00 | 58 | 1012.9 |
| 20260506002806 | 72 | 186 | 0.0 | 0.0 | 0.00 | 0.00 | 0.00 | 58 | 1012.4 |
| 20260506001801 | 73 | 186 | 0.0 | 0.0 | 0.00 | 0.00 | 0.00 | 56 | 1012.2 |
| 20260506000757 | 74 | 186 | 0.0 | 0.0 | 0.00 | 0.00 | 0.00 | 54 | 1012.3 |
| 20260505235749 | 75 | 186 | 0.0 | 0.0 | 0.00 | 0.00 | 0.00 | 52 | 1012.2 |
| 20260505234804 | 76 | 186 | 0.0 | 1.0 | 0.00 | 0.00 | 0.00 | 54 | 1012.2 |
| 20260505233752 | 77 | 186 | 0.0 | 0.0 | 0.00 | 0.00 | 0.00 | 49 | 1012.2 |
| 20260505232747 | 77 | 186 | 0.0 | 3.0 | 0.00 | 0.00 | 0.00 | 49 | 1012.3 |
| 20260505230558 | 78 | 172 | 1.0 | 10.0 | 0.00 | 0.00 | 0.00 | 48 | 1012.4 |
| 20260505224420 | 79 | 181 | 1.0 | 9.0 | 0.00 | 0.00 | 0.00 | 49 | 1012.6 |
| 20260505223400 | 79 | 192 | 3.0 | 12.0 | 0.00 | 0.00 | 0.00 | 45 | 1012.7 |
| 20260505222405 | 80 | 219 | 1.0 | 12.0 | 0.00 | 0.00 | 0.00 | 48 | 1012.6 |
| 20260505221409 | 80 | 162 | 1.0 | 10.0 | 0.00 | 0.00 | 0.00 | 45 | 1012.6 |
| 20260505220424 | 80 | 169 | 1.0 | 10.0 | 0.00 | 0.00 | 0.00 | 42 | 1012.6 |
| 20260505215401 | 81 | 184 | 2.0 | 9.0 | 0.00 | 0.00 | 0.00 | 44 | 1012.6 |
| 20260505211014 | 82 | 171 | 1.0 | 10.0 | 0.00 | 0.00 | 0.00 | 42 | 1012.8 |
| 20260505210029 | 82 | 137 | 2.0 | 10.0 | 0.00 | 0.00 | 0.00 | 40 | 1012.7 |
| 20260505205038 | 84 | 184 | 5.0 | 15.0 | 0.00 | 0.00 | 0.00 | 39 | 1012.9 |
| 20260505202905 | 84 | 181 | 1.0 | 10.0 | 0.00 | 0.00 | 0.00 | 39 | 1013.0 |
| 20260505195626 | 83 | 190 | 2.0 | 14.0 | 0.00 | 0.00 | 0.00 | 42 | 1013.5 |
| 20260505194559 | 83 | 205 | 0.0 | 7.0 | 0.00 | 0.00 | 0.00 | 45 | 1013.6 |
| 20260505193557 | 83 | 175 | 2.0 | 15.0 | 0.00 | 0.00 | 0.00 | 40 | 1013.8 |
| 20260505192538 | 83 | 193 | 2.0 | 15.0 | 0.00 | 0.00 | 0.00 | 40 | 1013.9 |
| 20260505191532 | 83 | 193 | 3.0 | 11.0 | 0.00 | 0.00 | 0.00 | 42 | 1014.1 |
| 20260505190532 | 83 | 286 | 3.0 | 11.0 | 0.00 | 0.00 | 0.00 | 41 | 1014.3 |
| 20260505185556 | 83 | 296 | 2.0 | 13.0 | 0.00 | 0.00 | 0.00 | 46 | 1014.5 |
| 20260505184551 | 82 | 202 | 3.0 | 13.0 | 0.00 | 0.00 | 0.00 | 43 | 1014.8 |
| 20260505183604 | 82 | 191 | 2.0 | 6.0 | 0.00 | 0.00 | 0.00 | 43 | 1014.9 |
| 20260505180344 | 82 | 155 | 2.0 | 14.0 | 0.00 | 0.00 | 0.00 | 43 | 1015.3 |
| 20260505175409 | 81 | 188 | 2.0 | 11.0 | 0.00 | 0.00 | 0.00 | 46 | 1015.4 |
| 20260505174342 | 80 | 195 | 1.0 | 10.0 | 0.00 | 0.00 | 0.00 | 46 | 1015.5 |
| 20260505173338 | 80 | 217 | 2.0 | 7.0 | 0.00 | 0.00 | 0.00 | 48 | 1015.5 |
| 20260505172321 | 80 | 208 | 4.0 | 15.0 | 0.00 | 0.00 | 0.00 | 44 | 1015.5 |
| 20260505171308 | 80 | 198 | 0.0 | 8.0 | 0.00 | 0.00 | 0.00 | 50 | 1015.5 |
| 20260505170330 | 79 | 203 | 1.0 | 15.0 | 0.00 | 0.00 | 0.00 | 50 | 1015.5 |
| 20260505165354 | 80 | 182 | 2.0 | 15.0 | 0.00 | 0.00 | 0.00 | 48 | 1015.7 |
| 20260505164328 | 80 | 133 | 2.0 | 12.0 | 0.00 | 0.00 | 0.00 | 51 | 1015.7 |
| 20260505152832 | 78 | 179 | 0.0 | 13.0 | 0.00 | 0.00 | 0.00 | 58 | 1016.5 |
| 20260505151759 | 77 | 173 | 2.0 | 13.0 | 0.00 | 0.00 | 0.00 | 59 | 1016.6 |
| 20260505150805 | 76 | 170 | 1.0 | 7.0 | 0.00 | 0.00 | 0.00 | 61 | 1016.5 |
| 20260505124936 | 64 | 196 | 0.0 | 4.0 | 0.00 | 0.00 | 0.00 | 81 | 1016.3 |
| 20260505123941 | 63 | 224 | 0.0 | 2.0 | 0.00 | 0.00 | 0.00 | 84 | 1016.2 |
| 20260505122944 | 61 | 206 | 0.0 | 0.0 | 0.00 | 0.00 | 0.00 | 86 | 1016.2 |
| 20260505121922 | 59 | 206 | 0.0 | 0.0 | 0.00 | 0.00 | 0.00 | 90 | 1016.3 |
| 20260505120928 | 58 | 206 | 0.0 | 0.0 | 0.00 | 0.00 | 0.00 | 91 | 1016.2 |
| 20260505115930 | 56 | 206 | 0.0 | 0.0 | 0.00 | 0.00 | 0.00 | 91 | 1016.0 |
| 20260505114859 | 55 | 206 | 0.0 | 0.0 | 0.00 | 0.00 | 0.00 | 91 | 1015.8 |
| 20260505112656 | 53 | 206 | 0.0 | 0.0 | 0.00 | 0.00 | 0.00 | 90 | 1015.8 |
| 20260505111717 | 53 | 206 | 0.0 | 0.0 | 0.00 | 0.00 | 0.00 | 90 | 1015.9 |
| 20260505101244 | 53 | 206 | 0.0 | 0.0 | 0.00 | 0.00 | 0.00 | 89 | 1015.2 |
| 20260505095206 | 53 | 206 | 0.0 | 0.0 | 0.00 | 0.00 | 0.00 | 88 | 1015.2 |
| 20260505094154 | 53 | 206 | 0.0 | 0.0 | 0.00 | 0.00 | 0.00 | 87 | 1015.3 |
| 20260505093212 | 53 | 206 | 0.0 | 0.0 | 0.00 | 0.00 | 0.00 | 87 | 1015.3 |
| 20260505092158 | 54 | 206 | 0.0 | 0.0 | 0.00 | 0.00 | 0.00 | 87 | 1015.2 |
| 20260505091202 | 54 | 206 | 0.0 | 0.0 | 0.00 | 0.00 | 0.00 | 86 | 1015.3 |
| 20260505084953 | 55 | 206 | 0.0 | 0.0 | 0.00 | 0.00 | 0.00 | 85 | 1015.1 |
| 20260505083925 | 55 | 206 | 0.0 | 0.0 | 0.00 | 0.00 | 0.00 | 85 | 1015.0 |
| 20260505082851 | 56 | 206 | 0.0 | 0.0 | 0.00 | 0.00 | 0.00 | 85 | 1014.9 |
| 20260505075626 | 56 | 206 | 0.0 | 0.0 | 0.00 | 0.00 | 0.00 | 84 | 1014.8 |
| 20260505074558 | 56 | 208 | 0.0 | 0.0 | 0.00 | 0.00 | 0.00 | 84 | 1014.8 |
| 20260505073609 | 56 | 208 | 0.0 | 0.0 | 0.00 | 0.00 | 0.00 | 84 | 1014.7 |
| 20260505072547 | 56 | 193 | 0.0 | 0.0 | 0.00 | 0.00 | 0.00 | 84 | 1014.6 |
| 20260505071517 | 57 | 193 | 0.0 | 0.0 | 0.00 | 0.00 | 0.00 | 83 | 1014.7 |
| 20260505070503 | 57 | 193 | 0.0 | 0.0 | 0.00 | 0.00 | 0.00 | 83 | 1014.7 |
| 20260505065434 | 57 | 193 | 0.0 | 0.0 | 0.00 | 0.00 | 0.00 | 82 | 1014.7 |
| 20260505064452 | 57 | 193 | 0.0 | 0.0 | 0.00 | 0.00 | 0.00 | 82 | 1014.8 |
| 20260505063443 | 57 | 193 | 0.0 | 0.0 | 0.00 | 0.00 | 0.00 | 82 | 1014.9 |
| 20260505062411 | 58 | 193 | 0.0 | 0.0 | 0.00 | 0.00 | 0.00 | 81 | 1015.0 |